Flag for Netherlands Weather past 2 weeks in Kralendijk (Bonaire), Netherlands

Now
82 °F

Passing clouds.


Feels Like: 88 °F
Forecast: N/A
Wind: 15 mph from Northeast

Location: Flamingo Airport - Bonaire

Current Time: Dec 27, 2014 at 6:55:56 PM

Latest Report: Dec 27, 2014 at 6:00 PM


Visibility: N/A

Pressure: 29.92 "Hg

Humidity: 74%

Dew point: 73 °F

Location of Kralendijk (Bonaire)Location

Historic Weather in Kralendijk (Bonaire) — Graph

°F

Kralendijk (Bonaire) temperature yesterday

Maximum temperature yesterday: 84 °F (at 10:00 AM)
Minimum temperature yesterday: 75 °F (at 5:00 AM)
Average temperature yesterday: 81 °F

Past Weeks' High & Low Weather Summary

 TemperatureHumidityPressure
High90 °F (Dec 16, 2:00 PM)89% (Dec 15, 5:00 AM)30.01 "Hg (Dec 15, 5:00 AM)
Low75 °F (Dec 15, 5:00 AM)62% (Dec 19, 4:00 PM)29.77 "Hg (Dec 14, 5:00 PM)
Average82 °F76%29.90 "Hg
* Reported Dec 12 5:00 PM — Dec 27 5:00 PM, Kralendijk (Bonaire), Weather by CustomWeather, © 2014

Note: Actual official high and low records may vary slightly from our data, if they occured in-between our weather recording intervals... More about our weather records

Advertising

Kralendijk (Bonaire) weather history for previous 24 hours

 ConditionsComfort  
Time TempWeatherWind HumidityBarometerVisibility
5:00 PM
Dec 27
84 °FScattered clouds.17 mph70%29.92 "HgN/A
4:00 PM86 °FScattered clouds.16 mph70%29.92 "HgN/A
3:00 PM86 °FWarm.20 mph70%29.95 "HgN/A
2:00 PM84 °FWarm.17 mph74%29.95 "HgN/A
1:00 PM84 °FScattered clouds.16 mph74%29.98 "HgN/A
12:55 PM84 °FScattered clouds.16 mph74%29.98 "HgN/A
12:00 PM84 °FWarm.18 mph74%29.98 "HgN/A
11:00 AM84 °FScattered clouds.18 mph74%29.98 "HgN/A
10:00 AM84 °FScattered clouds.20 mph74%30.01 "HgN/A
9:00 AM82 °FScattered clouds.17 mph79%29.98 "HgN/A
7:00 AM79 °FWarm.15 mph79%29.92 "HgN/A
6:00 AM79 °FWarm.14 mph79%29.92 "HgN/A
4:00 AM79 °FWarm.14 mph79%29.89 "HgN/A
2:00 AM81 °FWarm.16 mph74%29.92 "HgN/A
10:00 PM
Dec 26
81 °FWarm.18 mph79%29.92 "HgN/A
9:00 PM81 °FWarm.17 mph79%29.92 "HgN/A
8:00 PM81 °FPassing clouds.16 mph79%29.89 "HgN/A
7:00 PM81 °FWarm.15 mph79%29.86 "HgN/A
6:00 PM82 °FScattered clouds.17 mph74%29.86 "HgN/A
Weather by CustomWeather, © 2014

See weather overviewHow to use our weather pages